Weather History for KSTJ - March, 2014

Change the Weather History Date:

Friday, March 7, 2014

  Actual Average Record
Temperature  
Mean Temperature 43 °F 39 °F  
Max Temperature 56 °F 50 °F 82 °F (1974)
Min Temperature 30 °F 28 °F 0 °F (1943)
Degree Days  
Heating Degree Days 22 26  
Month to date heating degree days 303 190  
Since 1 July heating degree days 5243 4498  
Cooling Degree Days 0 0  
Month to date cooling degree days 0 0  
Year to date cooling degree days 0 0  
Moisture  
Dew Point 32 °F    
Average Humidity 68    
Maximum Humidity 82    
Minimum Humidity 54    
Precipitation  
Precipitation 0.00 in 0.06 in 1.49 in (1990)
Month to date precipitation 0.01 0.40  
Year to date precipitation 0.83 1.89  
Sea Level Pressure  
Sea Level Pressure 29.94 in    
Wind  
Wind Speed 13 mph (South)    
Max Wind Speed 25 mph    
Max Gust Speed 31 mph    
Visibility 6 miles    
Events      
T = Trace of Precipitation, MM = Missing Value Source: NWS Daily Summary

Daily Weather History Graph

Daily Weather History Graph

Search for Another Location

Airport or City:

Trip Planner

Search our weather history database for the weather conditions in past years. The results will help you decide how hot, cold, wet, or windy it might be!

Date:

Astronomy

Mar. 07, 2014 Rise Set
Actual Time 6:43 AM CST 6:18 PM CST
Civil Twilight 6:16 AM CST 6:45 PM CST
Nautical Twilight 5:45 AM CST 7:16 PM CST
Astronomical Twilight 5:14 AM CST 7:47 PM CST
Moon 10:38 AM CST (3/7) 12:23 AM CST (3/7)
Length of Visible Light 12h 28m
Length of Day
11h 34m
Waxing Crescent, 42% of the Moon is Illuminated
Mar 7
Waxing Crescent
Mar 8
First Quarter
Mar 16
Full
Mar 23
Last Quarter
Mar 30
New

Hourly Weather History & Observations

Time (CST) Temp. Windchill Dew Point Humidity Pressure Visibility Wind Dir Wind Speed Gust Speed Precip Events Conditions
12:53 AM 35.1 °F 28.6 °F 28.9 °F 78% 29.94 in 5.0 mi South 8.1 mph - N/A   Haze
1:53 AM 36.0 °F 29.6 °F 30.0 °F 79% 29.92 in 5.0 mi South 8.1 mph - N/A   Haze
2:53 AM 34.0 °F 28.0 °F 28.9 °F 82% 29.91 in 5.0 mi SSE 6.9 mph - N/A   Haze
3:53 AM 36.0 °F 29.6 °F 30.0 °F 79% 29.90 in 5.0 mi South 8.1 mph - N/A   Haze
4:53 AM 36.0 °F 29.0 °F 30.0 °F 79% 29.89 in 5.0 mi South 9.2 mph - N/A   Haze
5:53 AM 37.0 °F 29.3 °F 30.9 °F 79% 29.88 in 6.0 mi South 11.5 mph - N/A   Haze
6:53 AM 35.1 °F 27.9 °F 30.0 °F 82% 29.89 in 4.0 mi South 9.2 mph - N/A   Haze
7:53 AM 37.9 °F 30.9 °F 32.0 °F 79% 29.89 in 4.0 mi South 10.4 mph - N/A   Haze
8:53 AM 41.0 °F 37.1 °F 34.0 °F 76% 29.90 in 5.0 mi South 5.8 mph - N/A   Haze
9:53 AM 44.1 °F 37.7 °F 34.0 °F 68% 29.90 in 7.0 mi SSW 12.7 mph - N/A   Clear
10:53 AM 46.9 °F - 36.0 °F 66% 29.90 in 8.0 mi SSW 6.9 mph - N/A   Clear
11:53 AM 50.0 °F - 37.0 °F 61% 29.88 in 10.0 mi SSW 10.4 mph - N/A   Clear
12:53 PM 53.1 °F - 37.9 °F 57% 29.87 in 10.0 mi SSW 6.9 mph - N/A   Clear
1:53 PM 54.0 °F - 37.0 °F 53% 29.87 in 10.0 mi Variable 3.5 mph - N/A   Clear
2:53 PM 53.1 °F - 39.0 °F 59% 29.87 in 10.0 mi North 17.3 mph - N/A   Clear
3:53 PM 50.0 °F - 39.0 °F 66% 29.88 in 7.0 mi North 16.1 mph - N/A   Clear
4:53 PM 48.0 °F - 37.9 °F 68% 29.90 in 7.0 mi North 12.7 mph - N/A   Clear
5:53 PM 45.0 °F 37.6 °F 37.0 °F 74% 29.94 in 5.0 mi NNE 17.3 mph - N/A   Haze
6:53 PM 37.0 °F 27.0 °F 32.0 °F 82% 30.00 in 4.0 mi North 18.4 mph - N/A   Haze
7:04 PM 37.0 °F 27.7 °F 32.0 °F 82% 29.99 in 5.0 mi North 16.1 mph - N/A   Haze
7:53 PM 36.0 °F 24.7 °F 30.9 °F 82% 30.04 in 5.0 mi NNE 21.9 mph 28.8 mph N/A   Haze
8:53 PM 34.0 °F 22.4 °F 28.0 °F 79% 30.06 in 6.0 mi North 20.7 mph - N/A   Haze
9:53 PM 33.1 °F 21.9 °F 27.0 °F 78% 30.09 in 6.0 mi North 18.4 mph - N/A   Haze
10:53 PM 32.0 °F 22.1 °F 26.1 °F 79% 30.11 in 8.0 mi North 13.8 mph - N/A   Overcast
11:53 PM 30.9 °F 18.7 °F 23.0 °F 72% 30.12 in 10.0 mi North 19.6 mph - N/A   Overcast